Theta_e
323 324 325 325 326 326 326 326 327 327 326 327 327 327 328 328 328 328 327 327 327 327 327 327 327 327 327 326 327 326 326 327 326 326 326 325 325 325 324 324 324 324 323 323 324 324 324 325 325 324 324 323 323 323 322 322 322 321 320 320 320 319 318 315 314 314 314 315 314 314 313 313 312 312 311 311 311 310 308 308 306 305 304 302 300
321 322 323 324 325 325 325 325 325 326 326 326 326 327 327 328 328 327 327 327 327 327 327 327 326 326 326 326 326 327 326 326 326 325 325 324 324 324 323 323 324 324 324 324 323 323 323 324 324 323 323 323 322 321 320 320 320 320 319 318 318 318 317 315 313 311 312 313 313 312 311 311 311 311 310 311 310 308 306 306 305 303 302 300 299
319 320 322 322 323 324 324 324 325 325 325 326 326 327 327 327 327 327 326 326 326 327 326 326 326 326 326 326 326 326 326 325 324 323 323 324 323 322 321 322 323 322 322 322 321 322 322 323 323 322 322 321 320 319 318 318 319 318 318 317 316 316 315 313 311 310 310 311 311 310 309 309 310 309 309 308 307 305 303 302 301 300 299 298 298
317 318 320 321 321 322 322 323 324 324 325 325 325 326 326 326 326 326 326 326 326 326 326 325 326 325 326 326 326 326 326 324 322 322 324 324 321 321 320 320 320 320 320 320 320 322 322 322 321 321 320 319 319 318 317 317 317 317 317 316 315 315 314 313 311 309 308 308 309 309 309 309 308 307 306 305 303 301 300 299 299 298 297 297 297
314 315 317 319 320 321 322 322 323 323 324 324 324 325 325 325 325 325 325 325 325 325 324 324 325 325 325 326 326 325 324 322 322 323 324 322 319 319 319 319 320 320 320 320 321 322 321 320 320 319 318 318 317 317 316 316 316 316 316 315 314 313 313 312 311 309 307 307 307 308 308 307 306 305 303 301 300 299 298 298 299 298 296 296 296
311 312 314 316 317 319 320 320 322 322 323 323 323 324 324 323 324 324 324 324 323 323 323 323 324 324 324 325 324 323 322 322 323 322 321 320 320 319 318 319 320 320 320 320 320 320 319 319 319 318 317 317 316 316 316 316 316 316 316 314 313 312 311 310 310 308 306 305 305 305 305 304 303 302 300 299 298 298 298 298 298 298 296 296 296
310 310 311 313 314 316 317 318 320 321 321 322 323 322 323 323 323 324 324 323 322 321 321 322 322 322 322 323 323 322 322 322 322 321 320 319 319 318 318 319 320 319 319 318 318 317 317 316 316 316 316 315 315 315 315 315 316 316 315 314 312 311 310 309 308 306 305 304 303 303 302 301 300 299 299 299 298 298 298 296 295 296 296 295 295
309 310 310 311 312 312 314 316 318 319 320 321 322 322 322 323 323 324 323 321 320 319 319 319 319 320 321 321 321 320 321 321 320 319 318 317 316 317 318 318 318 318 317 316 315 315 314 314 314 313 314 314 314 313 313 314 315 315 313 312 311 310 309 308 306 305 303 303 302 301 300 299 298 297 297 298 296 296 296 295 293 294 294 293 294
309 309 309 310 310 310 311 312 314 317 319 320 321 321 322 322 322 321 319 318 317 316 317 317 318 319 320 319 319 319 320 320 318 317 318 317 316 317 317 316 316 316 315 314 313 313 312 313 313 312 312 312 312 312 311 312 313 313 312 311 311 310 308 307 305 304 303 302 301 300 299 298 298 297 297 297 296 295 295 293 292 293 292 291 292
308 309 309 309 309 309 309 310 310 312 315 317 318 319 319 318 317 315 314 314 315 315 316 317 317 317 318 318 318 318 318 318 317 317 317 317 316 315 315 314 314 313 312 312 312 312 312 312 312 312 311 311 311 310 311 311 311 311 310 310 309 308 307 306 305 304 303 300 299 298 297 297 297 296 296 296 295 294 293 292 291 291 289 289 290
307 307 308 308 309 309 309 309 309 309 310 312 313 313 313 312 311 311 312 314 315 316 316 316 316 316 316 316 316 316 315 315 315 315 314 314 313 313 312 312 312 311 311 311 311 310 310 311 311 310 310 310 309 309 309 310 309 309 309 308 307 306 306 306 305 304 301 299 297 297 296 296 296 296 295 295 294 293 292 291 290 289 288 287 288
306 306 307 308 308 309 309 309 309 309 309 309 309 310 310 310 310 311 313 314 314 315 315 315 315 314 314 313 313 312 312 312 311 311 310 310 310 310 309 310 311 311 311 310 310 310 309 309 309 309 309 309 309 308 308 307 307 307 307 307 306 305 305 305 304 302 300 298 297 296 296 295 295 295 294 293 292 290 289 288 288 287 287 286 286
305 305 307 307 308 308 308 308 309 309 309 309 309 309 309 310 311 311 312 313 313 313 313 312 312 311 311 310 310 309 309 309 309 308 308 308 308 308 308 309 310 310 309 309 309 309 309 309 308 308 309 309 308 307 306 306 306 306 305 305 304 303 302 301 301 300 298 297 296 296 295 294 294 293 291 290 288 287 286 286 286 286 286 286 286
304 305 306 307 307 308 307 308 309 309 310 310 309 309 309 310 310 310 311 311 310 310 310 310 310 309 309 308 307 307 306 306 305 305 306 306 306 306 307 308 308 308 308 308 307 308 308 308 308 308 308 308 307 305 304 305 305 304 303 302 301 300 298 297 296 295 295 294 294 294 293 292 291 290 288 287 286 285 285 285 285 285 285 285 285
304 304 305 306 307 307 307 308 309 309 310 309 308 308 309 309 309 309 308 308 308 308 308 308 308 307 307 306 305 305 305 305 304 304 304 305 305 305 305 305 306 306 306 307 307 307 307 307 307 307 307 307 305 304 304 304 304 302 301 299 298 296 295 293 292 291 291 291 290 290 289 288 288 288 287 287 286 286 285 285 285 285 284 284 284
304 304 305 306 306 306 307 308 308 309 309 308 307 307 307 308 307 307 306 305 305 305 305 305 305 304 304 304 304 304 305 305 305 305 305 305 306 306 306 306 306 306 306 307 306 306 306 306 306 305 305 305 304 304 303 302 301 300 298 297 295 293 292 291 290 290 289 288 288 287 287 287 287 287 286 286 286 286 285 285 285 285 284 284 284
304 304 304 306 307 307 307 307 307 307 306 306 306 306 306 306 305 305 304 303 303 303 303 303 302 302 303 303 304 304 305 305 306 306 306 306 306 306 307 306 306 306 306 306 305 305 304 304 305 304 303 303 303 302 301 300 299 297 296 294 292 291 290 290 289 288 288 287 287 286 286 286 286 286 286 286 286 285 285 285 285 284 284 284 284
304 304 304 306 307 306 306 306 306 306 305 305 306 305 304 304 304 303 303 302 302 302 301 301 302 302 302 303 303 304 305 306 306 306 306 306 306 307 307 306 306 305 305 304 304 303 303 303 303 303 303 302 301 301 300 299 298 296 294 292 290 289 289 288 288 287 287 286 286 286 285 285 285 284 284 284 284 284 284 284 284 283 283 283 283
307 307 307 306 305 305 305 305 305 305 304 304 304 302 302 302 301 301 300 300 301 301 301 301 301 302 303 303 304 304 305 306 306 306 307 307 307 307 306 306 305 304 304 303 302 301 301 302 302 302 301 301 300 299 299 298 296 295 293 291 289 288 288 287 286 286 286 285 285 285 285 284 284 284 284 283 283 283 283 284 284 283 283 283 282
310 309 308 305 303 303 304 304 304 304 304 304 302 301 300 300 299 299 299 299 299 299 300 301 301 302 303 304 304 305 305 305 306 306 307 307 307 306 306 305 305 304 303 303 302 300 300 300 300 300 300 299 299 298 297 295 294 293 291 289 288 288 287 286 286 285 285 285 285 285 284 284 284 284 284 283 283 283 282 282 282 283 282 282 282
309 308 306 303 302 303 303 303 304 304 304 303 301 300 300 299 298 298 298 298 298 299 300 300 301 302 303 304 305 305 305 305 306 306 306 306 306 306 305 305 304 304 303 302 301 300 299 299 299 299 298 297 296 295 294 292 291 290 289 288 288 287 287 286 285 285 285 285 285 285 285 284 284 284 284 283 283 282 282 282 281 281 281 281 281
307 306 304 303 302 302 303 303 303 303 303 302 301 300 300 299 298 297 297 297 298 298 299 300 301 302 302 304 305 305 305 305 305 305 305 305 305 305 305 305 304 304 302 301 300 299 299 299 298 297 296 295 294 292 291 290 289 288 288 287 287 286 286 285 285 285 285 285 284 284 284 283 283 283 282 282 282 282 282 281 281 281 280 280 279
305 303 303 302 302 303 303 303 303 303 302 301 300 300 299 298 297 297 297 297 297 298 299 300 300 300 301 302 303 304 304 304 304 304 304 304 304 304 304 304 304 303 302 301 299 299 298 297 296 294 293 292 291 290 289 288 287 287 286 286 286 285 285 285 285 285 284 284 283 282 282 282 281 281 281 280 280 280 280 280 280 280 280 279 279
302 302 302 302 302 302 302 302 302 302 301 301 300 298 298 297 297 296 296 297 297 297 298 298 298 298 299 299 301 302 302 302 303 303 303 303 303 303 303 302 302 301 301 300 299 298 297 295 293 292 291 290 288 288 287 287 286 286 285 285 285 285 285 284 284 284 284 283 282 281 281 280 280 280 280 279 279 279 278 278 278 278 278 278 278
301 301 301 301 301 301 301 301 301 301 300 300 298 297 297 296 296 296 296 296 296 297 297 297 297 297 297 298 298 300 300 299 300 301 302 302 302 301 301 300 300 299 299 298 297 296 295 293 291 289 288 287 286 286 286 285 285 285 285 285 285 285 285 284 284 284 283 282 280 280 280 280 279 279 279 279 278 278 278 277 277 277 277 277 278
301 301 301 301 300 300 300 300 299 299 299 298 297 297 296 295 295 295 295 296 296 297 297 296 296 297 297 297 297 297 296 296 298 299 300 299 299 299 299 299 298 298 297 296 295 294 291 290 288 287 287 286 286 286 285 285 285 285 285 285 285 285 285 284 284 283 283 281 280 280 280 279 279 279 278 278 278 278 277 277 277 277 277 277 277
300 300 300 300 299 299 299 299 298 298 297 296 296 296 296 295 295 295 295 295 295 296 297 296 296 296 297 297 296 296 295 294 295 297 297 296 296 296 296 296 296 296 295 294 292 290 289 288 287 287 286 286 285 285 285 285 285 285 284 284 284 284 284 284 284 283 282 281 280 280 279 279 278 278 278 278 278 278 277 277 277 277 277 276 276
299 299 300 299 298 298 298 298 298 297 296 295 295 295 295 295 295 295 295 295 296 296 297 297 296 296 297 297 296 294 293 293 293 294 294 294 294 294 294 295 295 294 293 291 289 288 288 287 286 286 285 285 285 284 284 284 284 284 284 284 284 284 283 283 283 283 282 281 280 280 279 279 278 278 278 278 278 278 278 278 277 277 277 276 276
298 298 298 298 298 297 297 297 297 296 295 295 295 295 295 295 295 295 295 296 296 297 297 297 297 297 297 297 296 294 293 292 293 294 294 294 294 294 294 294 294 293 291 290 288 287 286 286 285 285 284 284 284 283 283 283 283 283 283 283 283 283 283 282 282 282 281 281 281 280 279 279 278 278 278 278 278 278 278 278 277 277 277 276 276
297 297 297 297 297 297 296 296 295 295 294 294 294 294 295 295 295 295 295 296 296 296 297 297 297 297 297 297 296 296 294 294 293 293 293 294 294 294 294 293 293 292 290 289 288 287 285 285 284 284 284 283 283 283 282 282 282 282 282 282 282 282 282 282 281 281 281 280 280 279 279 278 278 278 278 278 278 278 278 278 277 277 277 276 275
295 296 296 296 296 296 295 295 294 294 293 293 293 293 294 294 294 295 295 295 296 296 296 296 296 297 297 297 296 296 295 295 294 294 294 294 294 294 293 293 292 290 288 287 287 286 285 284 283 283 283 283 283 283 282 282 282 282 281 281 281 281 281 281 280 280 279 279 279 278 278 278 278 278 278 278 278 278 277 277 277 277 276 276 275
294 295 295 295 296 295 295 295 294 293 293 293 293 293 293 293 293 294 294 295 295 295 296 296 296 296 296 296 296 296 295 295 294 294 294 294 293 293 293 292 290 288 287 287 286 285 284 284 283 282 282 283 282 282 282 282 282 281 281 281 281 280 280 280 279 279 278 278 278 278 278 278 278 278 278 277 277 277 276 276 276 276 276 275 275
293 293 294 294 295 295 294 294 293 293 293 293 293 293 293 293 293 293 293 293 293 294 295 295 296 296 296 296 296 296 295 295 294 294 294 293 293 292 291 290 288 286 286 286 285 283 283 283 282 282 282 282 282 282 281 281 281 281 281 280 280 279 279 279 278 278 278 278 278 278 278 278 277 277 277 277 276 276 275 275 275 275 275 275 275
292 292 292 292 293 294 294 293 293 292 293 293 293 293 293 293 293 293 292 291 291 292 293 293 294 295 295 296 296 296 296 295 294 294 293 292 292 291 288 287 286 285 285 285 284 283 282 282 282 281 281 280 280 280 280 280 280 280 279 279 278 278 278 278 278 278 278 277 277 277 277 277 276 276 276 275 275 274 274 274 274 274 274 274 274
291 291 290 291 292 292 293 293 292 292 292 292 293 293 293 293 293 293 292 291 290 290 290 291 292 292 293 294 294 294 294 294 293 293 293 291 289 287 286 285 285 284 284 284 284 283 282 281 281 280 279 279 279 279 279 279 279 278 278 278 278 278 278 277 277 277 277 277 277 276 276 276 275 275 274 274 274 274 274 274 274 274 274 274 274
286 287 288 289 290 291 292 292 292 292 292 292 293 293 293 293 293 292 291 291 290 289 288 289 289 290 291 292 292 292 293 293 292 291 290 288 286 285 285 285 284 283 283 283 282 282 281 280 279 279 278 278 278 278 278 278 278 278 278 278 277 277 277 277 276 276 276 276 276 275 275 274 274 274 274 274 274 274 274 274 274 274 274 273 273
284 285 286 287 289 290 291 291 291 292 292 292 292 292 292 292 292 291 290 289 289 288 287 287 287 288 288 288 289 289 290 290 289 288 287 286 285 285 285 284 283 282 282 281 280 280 279 279 278 278 278 278 278 278 278 278 277 277 277 277 276 276 276 275 275 275 275 275 274 274 274 274 274 274 274 274 273 273 273 273 273 273 272 272 272
284 285 286 287 288 289 290 290 291 291 291 292 292 292 291 291 290 290 289 288 287 286 285 285 286 286 286 285 286 286 286 286 286 285 285 285 285 284 284 283 282 281 280 279 279 279 279 278 278 278 278 278 278 277 277 277 277 276 276 275 275 274 274 274 274 274 274 274 273 273 273 273 273 273 273 272 272 272 272 271 271 271 271 271 271
285 285 286 286 287 288 289 289 290 290 290 291 291 291 290 289 289 288 287 286 285 284 284 284 284 284 284 284 284 284 284 284 283 283 283 283 283 283 282 282 281 280 279 278 279 279 279 278 278 278 277 277 277 276 276 276 275 275 275 274 274 273 273 273 273 273 273 273 272 272 272 272 272 271 271 271 270 270 270 271 271 271 271 271 271
285 285 286 286 287 287 288 288 289 289 289 289 289 289 289 288 287 287 285 284 283 283 283 283 283 283 283 284 284 284 283 282 281 281 281 281 281 281 281 281 280 280 280 279 279 279 279 278 277 276 276 276 276 275 275 275 274 274 274 274 273 273 272 272 272 272 272 272 271 271 271 270 270 270 270 269 269 269 269 270 270 270 270 270 270
284 285 285 286 286 287 287 287 287 288 288 288 288 288 287 287 286 286 284 283 282 282 281 281 281 281 282 282 282 283 282 280 279 279 280 280 280 280 280 280 280 280 280 279 278 278 277 276 276 275 275 275 275 274 274 274 274 274 274 273 273 272 272 271 271 271 271 271 270 270 270 269 269 269 268 268 268 267 268 268 268 269 269 269 269
284 284 285 285 286 286 285 286 286 286 286 287 287 286 286 286 285 284 283 282 281 280 280 279 279 279 279 279 280 281 280 279 278 278 278 279 279 279 279 279 279 279 279 278 277 276 276 275 275 275 275 274 274 273 274 274 274 274 273 273 272 272 271 271 271 270 270 270 270 269 269 269 268 268 268 267 266 266 266 267 267 268 268 268 269
283 283 283 284 284 285 285 285 285 285 285 285 285 285 285 284 284 283 282 281 280 279 278 277 277 277 277 277 278 279 279 278 277 277 277 277 277 277 277 277 277 277 276 276 275 275 275 275 275 274 273 273 273 273 273 273 273 273 272 272 271 271 271 270 270 270 270 270 270 270 269 269 269 268 267 266 265 265 265 266 266 267 267 267 268
282 282 282 282 283 283 283 283 283 283 283 283 283 283 283 283 282 281 280 278 278 277 276 276 276 276 276 276 277 277 277 276 275 275 275 275 276 276 276 276 275 275 275 274 274 274 274 274 273 273 272 272 272 273 273 272 272 272 271 271 271 271 270 270 270 270 270 270 270 270 269 269 268 267 267 266 264 264 264 265 265 265 266 266 266
280 280 281 281 281 281 281 281 281 282 281 281 281 281 281 280 280 279 278 277 276 276 275 275 275 275 275 275 276 276 276 275 275 275 275 275 275 275 275 275 274 274 274 274 274 273 273 272 272 272 272 272 272 272 272 271 271 271 271 271 270 270 270 270 270 270 270 269 269 269 269 268 267 266 265 264 263 263 263 264 264 264 264 265 265
279 279 280 280 280 280 279 280 280 280 279 279 279 278 278 278 278 277 277 276 275 275 274 274 274 275 275 275 275 275 275 275 275 275 275 274 274 274 274 273 273 274 274 273 273 272 271 271 271 271 272 272 271 271 271 271 270 270 270 270 270 269 269 269 269 269 269 269 269 268 268 267 266 264 263 262 262 262 263 263 263 263 264 264 264
278 278 278 278 278 278 278 278 278 278 278 278 277 277 276 276 276 276 275 274 274 274 274 274 274 274 274 275 275 275 275 275 274 274 274 273 273 273 273 273 273 273 272 271 271 270 270 270 270 270 271 271 270 270 270 270 269 269 269 269 269 269 268 268 268 268 268 268 268 267 267 266 265 264 263 262 262 262 262 262 262 263 263 263 264
277 277 277 277 277 277 277 276 276 276 276 276 276 276 275 275 275 274 274 273 272 272 273 273 273 273 274 274 274 274 274 274 274 273 273 273 272 272 273 272 272 271 270 269 269 269 269 269 269 269 270 269 269 269 269 269 269 268 268 268 268 268 268 268 268 267 267 267 267 266 266 265 264 263 262 262 261 261 261 262 262 262 262 263 263
276 276 276 276 276 276 276 275 275 275 275 275 275 274 274 274 274 273 273 273 272 273 273 273 272 272 272 272 273 273 273 273 273 272 272 272 272 272 271 270 269 269 269 269 269 269 269 269 269 269 269 269 269 269 269 268 268 268 268 268 268 268 267 267 267 267 267 266 266 265 264 264 263 262 262 262 261 261 261 261 261 261 262 262 262
275 275 275 275 275 275 275 275 275 275 275 274 274 273 273 273 273 273 273 272 272 272 272 273 273 273 273 273 273 273 272 272 272 272 271 271 271 270 269 268 268 268 268 268 268 269 269 268 268 268 268 268 268 268 268 268 268 268 268 267 267 267 267 267 266 266 266 265 265 264 263 263 263 263 263 262 262 262 261 261 261 261 261 261 261
275 275 275 275 274 274 274 274 274 274 274 273 273 272 272 272 272 272 272 272 272 271 272 272 272 272 272 272 272 272 272 271 271 271 271 270 269 268 268 267 267 268 268 268 268 268 268 268 268 268 268 268 268 268 268 268 268 267 267 267 267 267 266 266 266 265 264 264 264 264 264 264 264 263 263 263 263 263 262 262 262 261 261 261 261
Wind_Speed
31 33 34 34 35 35 35 35 34 34 33 33 34 35 35 35 35 34 33 32 31 29 28 27 27 26 25 25 25 24 24 24 24 24 24 24 25 26 25 24 23 24 23 23 23 24 25 26 25 24 23 22 20 18 17 17 18 19 21 22 24 25 24 19 11 10 17 20 18 18 18 17 17 18 17 17 19 21 21 23 24 25 27 29 31
30 32 32 32 34 34 33 33 32 31 32 32 34 35 35 35 35 34 33 32 30 28 28 27 26 25 25 25 24 23 23 23 23 22 23 24 24 24 23 22 23 24 24 23 23 22 23 23 23 22 21 20 18 16 15 14 15 18 20 20 21 22 20 18 14 10 12 18 19 17 17 16 17 18 17 17 19 20 20 21 22 24 25 27 29
29 29 30 31 31 31 31 30 30 31 32 33 34 35 36 36 35 34 33 31 29 28 27 26 25 24 24 24 24 23 23 22 21 22 23 24 24 23 23 23 23 23 23 23 22 21 22 22 23 22 21 19 16 15 14 13 13 15 17 17 17 18 17 16 15 12 12 16 17 16 15 15 16 17 17 17 18 18 18 19 21 22 24 26 28
27 27 28 29 28 28 29 30 30 32 33 34 35 36 36 35 34 33 31 29 28 28 27 26 25 24 24 24 23 23 22 21 22 24 24 23 23 22 22 23 24 24 23 23 23 22 21 20 20 19 17 16 15 14 13 13 14 15 15 15 15 15 15 15 15 14 13 14 14 15 16 16 17 17 17 16 16 16 16 17 19 22 23 24 27
24 25 26 27 27 28 29 30 31 33 34 35 35 35 34 34 33 31 30 29 29 28 26 25 24 24 24 24 23 23 22 22 23 23 22 22 23 23 22 23 23 23 23 23 22 20 18 16 16 15 15 15 15 15 14 14 15 15 15 13 12 12 13 13 13 14 14 15 16 16 16 17 17 17 16 14 14 15 16 16 18 20 22 23 25
22 24 24 25 26 28 29 30 32 33 34 34 34 34 33 32 31 30 29 29 28 27 26 25 24 24 24 23 23 23 23 22 23 22 22 23 23 21 22 22 20 20 20 19 17 16 16 15 16 15 15 16 16 15 15 15 14 14 14 12 11 10 10 11 11 12 13 15 15 14 14 15 15 14 14 13 12 14 16 17 18 19 21 23 24
20 22 23 24 26 28 29 30 31 32 32 32 32 32 31 30 29 29 28 28 27 26 25 24 23 23 23 23 23 22 22 22 21 21 22 21 20 20 22 22 19 17 16 15 15 15 15 15 16 16 15 15 15 15 16 16 14 14 14 13 11 10 10 10 10 11 12 13 13 13 12 12 12 12 12 12 12 14 16 16 18 19 19 21 22
20 21 22 24 27 29 29 29 29 29 30 30 30 29 29 28 28 27 27 26 26 25 24 23 22 22 22 23 22 21 22 22 21 21 22 22 21 21 20 19 18 16 16 15 15 16 17 17 16 16 16 15 15 15 16 15 14 15 14 12 11 10 10 10 10 10 11 11 12 12 10 10 11 10 11 11 12 14 14 14 17 18 18 19 21
22 23 24 27 29 29 27 27 27 28 28 29 29 28 27 27 27 26 25 25 24 22 21 21 21 21 22 22 21 21 22 22 21 20 22 22 21 19 18 17 16 16 16 17 18 19 19 18 16 15 15 15 15 15 15 14 14 14 13 12 11 11 10 10 11 10 11 11 11 10 9 10 11 10 11 12 13 13 13 13 15 17 17 19 22
23 25 28 29 29 27 26 26 26 27 28 28 28 27 27 27 26 25 24 23 22 21 21 21 22 22 23 22 22 22 23 22 21 20 21 21 21 21 21 20 20 19 20 20 20 18 15 13 13 13 14 13 13 12 12 12 12 11 11 11 11 11 11 11 11 11 11 10 10 9 8 9 11 11 12 13 12 12 12 12 14 16 15 16 19
24 26 29 29 28 27 27 27 26 27 27 27 27 27 26 26 24 23 23 23 23 23 23 23 24 24 24 24 24 24 24 24 23 23 22 22 22 22 21 20 20 21 20 18 16 14 13 13 14 13 13 12 12 12 13 13 12 11 11 11 11 11 12 12 12 12 12 12 11 10 8 9 10 11 11 12 11 11 12 12 14 14 13 11 11
24 26 28 27 27 28 28 27 26 26 26 27 27 26 25 24 24 24 25 25 25 25 26 26 26 26 26 26 26 25 25 24 24 24 24 23 22 21 20 19 19 18 17 15 15 16 16 16 16 14 13 12 13 14 15 14 14 13 13 13 13 13 13 13 13 13 13 13 12 12 10 10 11 11 10 10 9 9 9 10 12 13 14 13 12
22 25 26 27 28 29 28 27 26 27 27 26 26 26 25 26 27 28 28 27 27 28 28 28 28 28 27 27 27 26 26 25 24 23 22 22 21 20 19 20 18 17 16 16 16 16 15 16 15 13 12 12 13 14 14 14 13 13 13 13 13 13 12 12 12 12 13 13 13 13 11 10 11 11 9 8 8 7 7 9 11 12 14 16 17
21 23 25 26 28 28 28 28 28 28 27 27 27 27 28 29 29 29 29 29 29 30 30 30 30 29 29 29 28 28 27 26 25 24 23 22 21 20 20 19 18 17 18 17 16 15 15 15 14 13 12 13 13 13 13 13 13 13 12 12 12 11 10 10 10 10 10 10 11 11 10 9 10 9 8 8 8 8 8 10 11 12 14 16 17
20 23 25 27 28 28 29 29 29 29 28 28 28 29 30 31 31 30 30 30 31 30 30 29 28 27 27 26 25 24 22 20 21 22 21 20 19 19 20 20 19 19 19 18 17 17 17 16 14 14 14 14 14 14 14 14 13 13 12 11 10 9 8 7 7 7 7 7 8 7 7 8 8 8 8 9 9 9 9 10 12 13 14 14 15
21 24 26 28 29 30 31 31 31 31 30 29 30 32 32 33 32 31 31 30 30 29 28 27 25 24 22 21 21 21 19 18 18 18 19 18 18 18 18 19 20 20 19 18 18 18 18 17 16 16 16 15 14 14 14 13 13 12 11 10 9 7 6 6 5 5 5 5 4 4 4 5 5 5 6 7 8 8 8 10 11 12 12 12 13
24 26 28 30 32 32 32 32 32 32 31 31 33 34 34 34 34 33 32 31 31 30 28 27 25 23 23 23 23 23 21 21 20 19 19 19 19 20 20 20 21 21 20 19 18 18 18 17 16 16 15 14 14 13 13 12 12 11 10 9 8 6 5 5 4 3 3 2 2 1 1 1 2 3 4 5 6 6 7 8 9 9 8 7 7
26 27 29 32 33 34 33 33 33 32 32 34 36 35 34 34 34 33 33 32 32 30 29 27 26 25 25 25 25 24 23 22 21 21 21 21 20 21 21 21 21 20 19 19 18 19 18 17 16 15 14 14 13 12 12 12 11 10 9 9 8 6 5 4 3 3 2 2 2 2 1 1 1 2 3 3 5 5 5 6 7 7 7 6 7
27 28 30 31 32 32 32 32 33 33 33 35 35 33 32 32 31 31 31 30 29 28 27 27 27 27 27 25 24 24 24 23 23 23 23 22 22 22 23 22 21 21 21 21 20 19 18 17 16 15 14 13 13 13 13 12 11 11 10 9 9 7 6 4 3 3 2 2 2 2 2 1 1 2 3 3 3 4 4 5 6 7 8 9 10
27 28 29 28 27 29 30 31 32 33 34 34 32 30 30 29 28 28 28 28 27 27 27 27 28 28 27 26 25 25 25 25 25 25 25 25 25 24 24 23 23 24 24 23 22 20 18 16 15 15 14 15 15 14 13 12 12 11 10 9 9 8 6 5 3 3 2 3 3 3 3 3 3 3 3 3 3 3 3 3 5 6 8 10 11
28 28 27 24 24 26 28 30 31 33 33 32 30 29 28 27 27 26 26 26 26 26 26 27 27 27 27 27 27 27 27 27 27 26 26 26 25 25 25 25 25 26 25 23 22 21 19 17 16 16 16 16 15 14 13 12 11 11 10 9 8 7 6 5 4 3 3 3 3 4 4 3 3 4 3 3 3 3 3 2 2 3 5 7 9
28 27 24 23 23 24 26 28 30 31 31 30 29 29 28 26 26 25 25 26 27 27 27 27 27 27 27 27 28 29 28 28 27 27 27 26 26 26 27 27 26 26 25 24 22 20 19 18 17 18 17 17 15 14 13 13 12 12 11 10 9 7 6 5 4 4 3 3 3 3 3 3 3 3 3 3 3 2 2 1 1 2 3 4 6
25 24 23 23 23 24 26 27 29 29 30 29 29 28 27 26 26 25 26 26 27 27 27 27 27 26 27 28 29 29 29 29 29 29 28 28 28 28 28 27 26 25 24 24 22 20 18 18 19 18 17 16 15 15 14 14 14 13 12 10 9 8 7 6 5 3 2 1 1 2 3 4 4 4 4 4 4 4 3 3 2 3 3 4 6
22 22 23 23 23 24 24 25 26 28 28 28 28 27 27 27 27 27 27 27 26 26 26 27 26 26 26 28 29 30 30 30 30 30 29 29 30 29 28 26 25 24 23 22 20 19 19 20 19 18 16 15 15 15 14 14 13 13 11 10 9 8 7 6 5 3 2 1 2 3 4 4 3 4 4 4 5 5 5 5 4 4 4 5 6
20 22 23 23 23 22 22 23 25 26 27 28 28 28 27 26 26 27 28 28 27 26 25 25 26 25 24 25 28 30 30 30 30 30 29 29 30 29 28 26 24 22 21 19 18 19 20 20 18 17 16 16 15 15 14 14 13 13 12 11 10 9 7 6 4 3 2 2 3 3 3 2 2 2 3 4 4 4 5 5 5 5 5 6 7
20 21 22 23 22 21 21 22 23 24 25 26 27 27 27 27 27 26 27 28 28 27 25 24 25 24 24 25 27 28 29 30 31 31 30 30 29 28 27 25 23 21 19 18 19 20 20 19 18 17 16 16 15 16 16 15 14 13 12 11 10 9 7 6 5 4 4 4 3 2 1 0 1 1 3 3 4 4 4 5 6 5 6 7 9
19 21 22 21 20 20 21 22 23 23 24 25 26 26 26 27 27 26 27 27 27 26 25 25 24 25 25 26 25 26 28 30 31 31 32 31 29 28 26 24 22 21 20 21 21 22 21 19 18 18 17 17 16 17 16 16 14 14 13 11 10 9 8 7 6 5 5 5 4 3 2 1 1 1 2 4 5 5 6 7 6 6 6 7 9
19 20 21 20 20 21 22 22 23 23 24 26 27 27 28 29 29 30 31 31 29 27 27 27 27 28 27 25 24 24 26 30 32 33 33 32 30 28 26 25 24 23 24 24 24 23 22 21 20 19 19 19 19 18 17 16 15 14 13 12 10 9 8 7 7 6 6 5 4 4 2 1 1 2 3 5 6 6 6 7 6 6 7 7 8
18 20 20 19 19 20 20 21 22 22 23 25 27 29 30 31 32 32 32 33 33 31 29 28 29 29 27 26 25 25 26 30 33 34 33 32 31 29 26 25 25 25 25 26 26 25 24 24 23 22 22 22 21 20 19 18 16 14 13 12 11 10 9 8 8 7 6 5 5 4 3 2 2 2 3 5 5 5 6 6 6 7 8 7 7
17 18 18 18 18 18 18 19 20 21 22 23 24 26 27 29 31 31 30 31 32 32 30 28 27 27 27 27 28 28 28 28 29 29 31 31 30 27 24 24 24 25 26 27 27 27 27 26 26 25 25 24 24 22 21 19 18 17 15 13 12 12 11 9 8 8 6 5 4 4 3 3 3 3 3 4 5 5 6 7 6 7 8 8 8
16 17 17 17 17 17 18 18 18 19 20 20 20 21 21 23 27 29 28 28 28 29 30 29 26 25 25 26 26 26 26 26 26 26 28 29 27 25 23 24 25 26 28 28 28 28 28 28 27 26 26 25 24 23 22 20 19 18 17 15 13 12 11 10 9 7 6 5 4 4 3 3 2 2 3 4 5 5 6 7 7 7 8 8 9
16 17 17 16 17 17 17 18 17 17 17 18 18 18 17 17 20 22 24 25 25 26 27 28 28 25 24 25 25 25 24 24 25 24 25 27 27 25 24 26 27 27 28 29 28 28 29 29 28 27 26 25 23 23 22 21 20 19 17 16 14 12 11 9 8 7 6 5 5 4 3 2 0 1 3 4 5 6 6 6 7 7 7 8 9
16 18 17 16 16 16 17 17 17 16 17 17 17 17 16 15 15 15 16 18 19 20 22 25 28 28 26 25 26 26 25 24 24 23 24 27 28 26 26 27 28 28 29 29 28 27 28 28 28 26 24 23 22 21 21 20 19 17 16 15 14 12 10 9 8 7 6 5 4 4 3 1 0 1 2 3 4 5 6 6 7 7 7 8 9
15 17 16 15 16 16 17 17 17 17 17 17 17 17 17 16 15 15 14 14 14 15 17 20 23 25 26 26 25 25 26 25 24 23 25 27 28 27 27 27 26 27 29 29 27 27 27 27 25 24 22 22 21 20 19 18 17 16 14 13 12 12 10 9 8 7 6 5 4 4 3 1 0 1 2 3 4 5 6 6 7 7 7 7 8
13 15 15 15 15 16 16 16 16 16 17 17 18 18 18 18 17 16 16 15 14 12 12 13 16 18 21 23 23 24 24 24 24 24 26 28 29 29 28 27 25 25 26 26 26 26 27 26 24 23 21 20 19 18 18 16 15 14 14 13 12 11 10 9 8 7 6 5 4 3 2 1 1 1 2 3 4 5 6 7 7 8 7 7 7
11 12 13 13 14 15 15 15 15 16 17 17 17 18 18 18 18 17 17 17 16 15 13 12 13 14 16 18 21 22 22 23 23 24 26 28 30 31 30 28 26 24 24 24 24 24 24 23 22 21 20 19 19 18 17 16 14 13 13 12 11 10 9 8 7 6 5 4 3 3 2 1 1 2 2 3 4 5 6 7 7 7 7 7 7
11 11 12 12 13 14 14 15 15 16 16 17 17 17 17 17 17 17 16 16 16 16 15 15 14 14 13 15 17 19 21 22 23 24 26 28 30 31 29 27 25 24 23 23 23 23 22 21 21 21 20 19 18 18 16 15 13 11 10 9 8 7 7 6 6 5 5 5 4 4 3 3 2 2 2 3 3 4 4 5 6 6 7 7 7
12 12 12 12 13 13 14 14 14 15 15 16 16 17 17 16 16 16 16 16 17 17 17 17 18 18 17 17 18 20 21 22 22 23 24 26 28 29 27 26 25 24 23 22 22 22 22 21 20 20 19 17 16 15 13 12 11 10 8 8 7 6 6 6 6 6 6 5 5 5 5 4 4 4 4 5 5 5 4 5 6 6 7 7 7
12 12 12 12 13 13 14 14 14 15 15 16 16 17 17 16 16 16 15 16 16 17 18 18 18 19 21 22 23 24 24 24 24 24 24 24 25 25 24 23 23 23 23 23 22 22 22 21 19 18 17 15 14 12 11 10 10 8 7 7 7 7 7 7 6 6 6 5 5 5 5 5 6 6 7 6 6 5 4 5 6 6 6 7 7
12 11 11 11 12 14 14 15 15 15 16 16 16 16 17 17 17 17 17 17 17 18 18 18 18 20 23 25 26 27 26 24 23 25 25 23 23 22 22 23 24 24 24 23 22 21 21 20 18 16 15 13 12 11 10 9 8 7 7 7 7 7 7 6 5 5 4 4 4 4 5 5 6 6 7 6 5 4 5 6 6 7 7 7 7
12 12 12 11 12 14 14 15 16 17 17 17 17 17 18 18 18 18 18 18 18 18 18 17 18 20 22 23 24 26 26 24 23 24 25 24 24 23 24 24 25 24 24 23 22 20 19 18 16 14 13 12 11 10 9 8 7 6 6 6 6 6 6 5 4 3 3 2 2 3 3 4 5 6 6 6 6 6 6 6 7 7 7 7 7
13 14 14 13 13 15 16 17 18 18 18 18 19 19 18 18 18 18 18 18 18 18 18 17 18 20 20 20 20 22 23 23 23 23 23 23 24 24 24 24 24 23 22 21 20 19 17 16 15 13 12 12 11 9 8 7 7 6 6 6 6 6 6 4 3 3 2 1 1 2 3 4 4 5 5 5 5 5 5 5 5 6 6 6 7
16 16 16 15 16 17 18 19 19 19 19 19 19 19 19 19 18 19 18 18 19 19 19 19 20 20 19 18 19 19 20 21 22 23 23 24 24 24 24 24 23 21 20 19 17 16 15 14 14 13 12 11 10 8 7 7 6 6 7 7 7 6 5 4 3 2 1 1 2 3 4 4 4 4 4 4 4 4 4 4 5 5 6 6 6
17 17 17 17 18 18 19 19 19 19 20 20 19 19 19 19 19 19 19 19 19 21 21 22 23 23 21 20 20 20 21 23 23 24 24 25 25 25 24 23 22 21 20 18 16 15 14 14 14 13 12 10 9 8 7 7 7 6 6 6 5 5 4 3 2 2 2 2 2 3 4 4 4 4 4 3 3 3 4 4 5 6 6 6 6
18 18 17 17 17 17 18 18 18 18 18 18 17 18 19 20 20 21 21 21 22 23 24 25 25 26 25 23 22 23 24 24 25 25 25 25 25 25 24 22 21 20 18 17 16 15 14 13 13 12 11 10 9 8 7 7 7 6 5 4 4 3 3 2 2 2 2 2 3 3 4 4 4 3 3 3 2 3 5 6 6 6 6 6 6
18 17 17 16 16 16 16 16 17 17 17 18 18 18 18 20 21 22 23 24 26 26 26 26 27 27 26 25 24 24 25 26 26 26 26 25 24 24 22 21 19 18 17 16 16 15 14 13 12 11 10 9 9 8 7 6 5 4 4 3 3 2 2 2 2 2 3 3 4 4 4 4 3 3 3 4 4 5 6 6 6 6 6 7 7
16 16 16 16 15 15 15 15 16 16 16 17 18 18 18 19 20 21 23 24 26 27 29 29 29 28 28 27 27 27 27 27 27 26 25 24 23 22 21 19 19 18 17 16 15 14 14 13 12 10 9 9 8 7 6 5 4 3 2 2 2 2 3 3 3 3 4 4 4 5 4 4 3 4 4 5 6 6 6 6 6 6 6 7 7
14 14 14 14 14 14 14 14 15 15 15 16 17 18 19 20 21 22 23 24 25 27 29 30 30 30 30 30 29 29 29 28 26 25 24 23 22 21 19 19 18 18 17 17 15 14 13 12 11 10 9 8 7 6 5 4 4 3 3 3 3 3 3 3 4 4 4 5 5 4 4 3 4 4 5 6 6 7 7 7 7 6 6 7 7
13 13 13 13 13 14 14 14 14 15 15 16 16 18 20 22 22 23 24 26 27 29 30 30 29 29 30 29 29 28 28 27 26 25 24 22 21 20 19 18 17 17 16 15 15 14 13 12 11 10 9 8 7 6 5 5 4 4 4 4 4 4 4 4 5 5 5 5 4 4 4 4 5 6 7 7 7 8 8 8 8 8 7 7 7
12 12 12 12 12 12 13 14 15 15 16 17 18 19 20 22 24 25 27 29 29 30 30 30 30 29 29 29 29 28 27 27 26 24 23 22 20 19 18 18 17 16 15 14 13 13 12 11 10 9 7 7 6 6 5 5 5 5 5 5 4 4 5 5 5 5 5 5 5 5 5 6 8 8 8 8 7 7 8 9 9 9 8 8 9
11 11 11 11 11 11 12 14 15 16 17 19 20 21 22 24 25 27 29 30 30 29 29 29 28 28 27 27 27 27 26 25 24 22 21 21 20 19 18 17 17 15 15 13 13 12 11 9 8 7 7 6 6 6 5 5 5 5 5 5 5 5 5 6 5 6 6 6 7 7 8 8 8 8 7 6 6 7 8 8 8 8 9 9 10
Wind_Direction
230 232 233 233 234 235 235 236 235 235 235 236 238 241 244 245 247 248 247 247 246 245 245 247 247 247 246 246 246 245 246 248 248 248 248 249 250 252 252 252 254 253 253 255 256 256 257 259 264 269 267 258 252 252 255 257 263 268 268 264 261 261 257 249 247 261 267 271 274 274 274 275 278 278 278 282 284 282 278 277 275 273 271 266 259
233 235 235 235 236 236 236 236 236 237 237 238 239 242 244 246 247 246 245 246 246 245 247 248 247 246 246 245 245 244 245 246 247 246 246 249 251 254 254 254 256 254 252 254 258 262 263 262 264 268 263 254 249 251 255 256 262 270 271 267 264 267 265 256 251 252 263 271 274 277 278 277 277 279 282 288 290 286 282 280 279 276 273 268 263
235 236 235 236 237 237 238 238 239 239 239 239 240 242 244 245 244 243 243 245 245 246 247 246 245 245 244 245 244 243 243 242 242 244 244 244 247 251 251 251 257 258 254 254 259 266 266 262 261 261 256 250 245 246 253 257 262 270 273 272 270 272 272 265 257 251 256 267 273 275 276 277 279 283 289 293 292 288 284 283 282 277 273 270 266
235 235 236 237 238 238 239 239 238 238 238 239 240 241 242 242 241 241 242 244 245 245 245 243 243 241 241 242 241 239 239 238 240 243 241 240 245 249 248 248 253 256 255 256 261 265 263 258 257 254 248 247 249 252 257 263 268 270 271 272 273 274 276 273 268 261 257 261 267 271 274 279 284 288 291 293 291 288 285 284 283 280 276 273 269
235 236 237 237 237 237 238 237 237 237 238 239 240 240 240 240 240 241 242 243 243 243 242 240 239 238 238 239 238 238 239 239 240 239 237 240 243 245 247 249 250 251 253 255 256 255 251 250 250 249 247 251 256 259 260 260 261 262 265 268 271 273 273 272 272 267 258 255 260 269 275 278 282 286 288 289 289 289 287 286 286 282 278 275 271
236 236 236 236 237 237 237 237 236 237 238 239 240 240 240 240 241 241 241 240 240 240 239 237 235 235 236 237 237 237 238 238 238 237 237 242 241 239 246 252 253 251 249 248 246 243 243 248 250 249 250 252 256 257 255 249 247 254 260 261 263 267 267 266 265 261 256 255 260 268 273 276 279 282 284 286 289 290 290 289 287 283 279 277 275
236 236 236 237 238 238 238 237 237 238 239 240 240 240 240 241 241 240 239 238 237 236 234 233 232 233 234 234 234 235 235 234 234 234 237 242 244 243 245 246 244 243 241 241 243 246 253 257 255 253 253 253 254 251 245 241 244 253 254 249 248 253 256 257 255 251 253 256 261 265 269 274 275 277 284 291 292 290 288 283 282 285 283 281 281
240 240 239 238 240 240 239 239 239 240 240 240 240 240 239 239 239 238 236 234 233 232 230 229 229 228 229 231 232 232 231 230 233 236 238 239 241 242 239 235 236 239 242 246 250 255 263 264 259 258 256 254 254 249 243 245 251 251 245 238 240 244 246 248 247 246 251 256 263 267 269 272 272 275 284 287 283 283 285 280 278 284 285 283 284
243 241 241 241 242 241 240 240 239 239 238 238 237 237 237 236 235 234 232 230 230 229 227 226 224 223 224 226 227 227 227 229 232 234 233 231 232 236 239 241 244 247 250 257 260 260 261 259 257 258 256 252 251 249 247 250 249 243 238 235 236 238 238 239 238 242 248 254 261 264 264 266 267 267 270 273 276 281 285 282 279 284 286 283 285
243 240 241 243 242 241 241 239 237 236 235 234 234 234 234 233 232 230 227 224 223 221 220 220 219 220 221 222 223 224 226 229 230 230 231 234 238 242 246 250 253 255 257 255 251 247 245 247 249 248 245 242 243 245 247 247 244 240 238 235 233 232 231 232 236 240 243 246 249 248 247 255 260 262 266 274 282 283 281 278 277 282 285 283 288
246 243 245 245 242 240 239 237 235 235 234 233 233 232 231 229 226 223 219 217 215 214 215 217 218 220 222 224 226 228 229 231 232 234 236 238 239 240 242 247 247 245 242 238 236 237 242 248 246 239 237 239 244 249 250 249 245 241 237 234 231 229 228 231 236 238 237 237 242 241 238 249 262 269 272 278 285 283 281 278 273 273 275 274 284
249 247 247 244 240 237 237 236 234 234 233 233 232 230 227 223 219 216 214 212 212 213 216 218 220 222 224 227 229 230 231 232 232 234 236 235 236 237 237 238 234 228 228 235 241 244 245 243 239 235 238 244 249 251 249 244 240 234 230 228 228 227 228 233 238 240 239 238 243 245 245 256 271 278 281 284 289 289 284 279 272 268 265 260 262
251 247 244 240 237 235 234 234 233 233 232 231 229 225 221 219 216 215 214 213 215 217 219 221 222 224 225 226 228 229 229 229 229 230 230 229 230 230 227 225 223 224 231 235 234 235 237 233 227 227 232 236 239 239 237 233 229 226 224 224 226 229 232 236 240 243 246 246 251 258 263 270 278 286 293 292 292 292 285 280 279 272 265 263 267
253 247 241 237 235 232 231 231 231 231 229 227 224 220 218 218 217 217 216 216 219 221 223 225 226 226 227 227 229 230 229 228 226 224 223 223 224 223 221 221 224 228 232 231 229 234 234 223 212 215 222 225 226 225 223 224 223 221 222 223 226 230 231 233 235 238 244 249 256 267 277 280 282 290 294 289 288 293 292 291 291 284 276 276 280
254 247 240 236 234 229 228 228 227 227 225 222 220 218 218 219 219 219 218 219 222 224 226 228 228 227 226 225 225 225 222 218 216 216 217 218 218 218 219 222 225 226 227 229 231 229 222 213 211 218 221 220 219 218 218 220 219 218 220 219 218 218 216 218 221 224 233 241 250 263 272 276 283 289 288 288 291 296 296 294 292 290 288 288 287
252 246 240 236 233 229 227 225 224 224 221 219 219 219 219 220 219 219 220 221 224 227 228 227 225 223 220 216 215 214 211 209 210 210 209 210 211 210 210 214 217 218 219 221 220 217 214 214 216 217 215 214 215 217 217 217 214 213 212 208 204 204 203 203 207 213 222 228 235 248 260 272 286 291 291 295 295 295 296 293 292 292 291 290 291
252 247 241 239 235 230 227 224 222 221 218 218 220 220 220 220 220 220 220 221 223 224 224 221 220 219 215 212 212 212 211 210 210 210 210 210 210 208 207 210 212 213 214 215 214 213 211 212 213 211 210 210 212 214 216 215 212 209 205 199 195 194 193 191 192 195 198 195 192 203 230 257 275 286 294 301 299 300 302 301 302 303 298 295 296
253 249 246 245 238 232 229 225 223 221 219 220 222 221 221 221 221 221 221 221 222 222 219 217 216 217 216 214 214 213 213 212 212 213 214 212 211 210 207 206 207 208 209 208 209 210 208 207 208 208 208 209 210 213 217 217 214 210 204 198 191 184 178 172 164 162 156 144 146 151 154 198 274 310 322 319 314 315 317 314 313 312 305 301 300
258 256 256 252 242 235 232 229 226 224 223 224 223 222 222 223 223 224 223 223 223 220 217 215 215 216 216 216 215 213 215 215 213 214 215 213 213 212 206 201 202 205 206 204 202 202 202 203 205 206 210 214 215 217 217 215 211 205 200 193 183 173 168 160 151 151 146 130 123 116 105 83 31 21 16 3 346 340 333 319 311 306 301 299 299
264 263 262 256 245 239 237 233 231 229 228 228 226 224 226 225 224 224 223 222 222 219 216 216 216 216 215 214 214 214 216 216 214 214 215 213 211 209 205 204 206 204 202 199 197 197 199 203 207 212 216 217 215 212 209 206 202 196 191 188 181 172 166 161 152 145 131 115 106 95 84 71 58 51 46 37 29 22 7 335 314 305 299 297 296
265 263 262 256 249 245 242 238 238 236 234 232 229 228 229 228 226 225 221 219 219 218 216 216 217 218 217 215 215 216 216 216 213 212 213 211 210 211 212 213 212 205 199 198 200 201 202 206 211 214 214 212 208 203 199 197 194 190 187 186 183 176 169 162 153 141 121 102 89 80 73 66 58 56 52 43 41 40 31 13 342 320 304 297 294
262 260 260 259 253 249 246 243 241 239 236 233 230 229 229 228 227 225 220 217 217 216 216 215 215 217 218 218 218 217 217 217 215 214 214 215 216 218 217 217 213 207 201 201 203 205 209 213 214 210 206 203 199 196 195 193 189 187 186 183 179 173 164 155 148 138 124 106 87 72 62 48 36 38 38 28 18 3 348 342 332 323 312 304 299
260 259 259 258 255 252 248 245 241 238 235 232 229 227 226 224 222 221 218 216 214 214 215 214 212 213 215 217 219 219 219 220 219 218 218 218 218 218 216 215 213 210 208 208 207 208 211 211 207 202 199 196 194 192 191 189 186 183 180 177 172 166 164 161 160 159 153 136 90 62 49 33 20 15 9 1 352 343 339 339 332 327 320 311 306
262 260 258 256 254 251 248 243 239 236 234 231 227 224 222 220 217 214 214 213 212 214 214 212 210 211 213 214 216 219 220 220 219 218 217 216 215 212 210 210 210 210 212 213 213 212 211 207 200 196 193 190 188 186 184 183 182 178 174 172 170 171 174 176 177 175 164 108 63 59 49 33 22 13 357 348 349 353 356 357 352 348 334 312 301
261 260 259 256 254 250 245 242 239 236 232 228 223 220 218 215 212 210 209 208 210 213 214 212 211 212 213 214 216 218 218 216 214 215 216 215 213 210 208 208 208 209 211 214 215 212 207 199 192 188 185 183 181 179 178 177 178 177 174 172 173 176 178 176 171 156 131 104 86 80 63 33 18 4 340 334 345 354 352 352 357 358 345 329 322
262 261 258 255 252 247 241 239 237 234 230 226 223 220 217 213 211 210 207 207 210 212 213 212 213 214 216 217 217 216 214 212 212 213 213 213 211 209 206 206 207 210 212 213 208 200 193 188 183 180 179 179 179 178 176 175 176 176 174 174 175 175 171 165 158 150 140 132 125 119 109 28 347 339 325 333 356 4 356 359 9 10 356 345 344
263 261 258 254 249 242 237 235 232 229 226 224 221 220 218 215 213 210 207 207 209 211 212 212 212 213 216 217 215 213 211 210 210 210 209 208 206 204 203 203 204 205 204 200 193 186 181 178 177 177 176 176 177 177 175 173 173 171 168 168 169 166 162 159 157 152 150 148 147 148 155 182 318 343 348 4 20 22 13 10 14 10 359 350 347
263 262 260 255 248 241 237 234 229 225 223 221 218 217 216 214 214 214 213 210 209 210 212 213 213 214 216 215 210 208 208 210 210 208 205 203 201 199 198 199 199 198 195 189 182 178 176 173 172 173 174 172 171 171 169 166 165 164 161 161 160 157 154 152 149 147 147 148 147 147 147 129 44 19 14 19 24 21 9 4 0 355 352 349 341
266 264 262 256 249 244 239 235 230 225 222 221 221 221 220 218 217 220 221 219 218 217 217 218 219 220 219 217 211 207 208 211 212 210 207 204 202 200 199 199 199 198 194 188 180 173 171 170 170 171 171 169 166 164 163 161 159 157 157 156 153 151 151 151 151 148 146 144 140 131 114 82 48 27 13 12 19 15 357 351 349 346 345 337 327
271 267 264 258 252 248 242 238 235 230 225 223 223 225 227 227 226 227 227 228 228 227 226 227 228 225 223 222 220 217 217 217 215 213 210 208 206 207 207 206 205 201 195 188 181 174 170 169 171 172 172 170 167 164 162 161 157 156 155 154 154 152 151 152 151 147 142 137 127 111 92 70 49 30 9 2 6 2 345 338 336 334 333 326 317
274 271 268 263 258 253 247 244 240 234 230 228 226 226 229 231 232 233 234 235 235 234 233 233 233 232 229 227 225 224 225 224 221 217 213 210 208 208 209 210 209 202 193 185 179 175 173 172 173 174 174 173 170 167 165 162 160 157 154 152 153 153 150 149 147 144 141 136 125 111 97 82 61 25 356 339 339 341 336 333 332 327 325 324 316
274 273 272 267 262 256 250 246 243 238 234 232 230 229 230 231 233 234 235 237 239 239 237 235 234 235 234 231 227 223 222 221 221 219 215 209 206 206 208 208 205 197 191 186 181 177 177 176 174 173 175 175 173 169 167 164 161 159 156 153 152 153 151 149 145 142 142 138 131 125 120 112 51 325 328 328 334 339 335 331 329 322 319 319 314
276 277 277 274 268 259 250 245 242 238 235 234 232 231 231 231 231 230 231 234 236 238 238 236 236 235 235 234 231 227 224 221 218 215 210 205 204 205 205 203 198 191 188 186 183 180 179 178 175 174 175 174 170 166 165 163 160 158 157 153 151 150 150 147 143 142 144 143 138 137 140 152 270 318 329 332 335 333 325 321 322 318 311 307 304
276 274 274 274 271 264 254 248 243 238 236 234 232 231 232 232 231 225 220 219 221 224 228 231 232 234 234 232 229 227 224 220 214 208 204 202 202 200 195 190 188 189 190 189 186 182 178 176 174 173 173 170 166 163 162 159 155 152 151 148 146 146 146 147 149 152 154 154 150 146 149 163 246 325 326 326 326 322 317 317 318 313 305 299 299
280 275 272 271 270 268 262 254 248 243 239 235 233 231 230 230 228 222 216 211 207 206 211 216 220 223 225 223 220 218 216 212 206 203 201 198 195 190 182 176 177 183 188 191 189 184 178 175 173 171 168 165 163 161 157 154 152 152 150 146 145 148 150 153 156 157 156 156 155 155 166 209 274 294 307 316 318 314 314 316 315 310 304 300 301
296 288 282 277 272 270 266 259 253 248 244 241 239 236 232 228 224 220 215 210 203 195 192 193 197 203 209 211 210 207 205 202 200 198 195 191 186 182 177 174 174 178 183 186 185 180 176 173 169 166 165 164 162 160 158 156 156 155 154 154 155 159 162 165 166 168 168 170 176 190 203 216 250 272 290 301 299 297 302 306 308 308 305 303 303
307 298 292 287 279 273 267 262 258 254 249 246 242 236 231 227 221 215 208 202 196 190 183 179 177 178 184 192 195 193 191 191 191 189 185 182 182 183 181 178 176 177 178 178 177 172 168 166 164 164 165 165 163 162 161 160 160 160 162 166 169 171 173 177 181 185 187 186 187 188 181 171 179 212 258 283 289 290 293 297 300 301 302 303 302
307 300 294 289 283 275 268 262 257 252 247 242 237 231 226 221 215 209 203 196 190 184 178 175 174 171 169 171 176 178 175 173 174 174 173 175 179 184 185 182 179 175 171 169 169 167 163 161 164 167 166 165 164 164 163 164 166 169 171 172 172 174 178 182 185 186 184 181 180 182 186 193 214 241 260 274 281 285 286 289 292 292 294 297 294
304 297 292 286 279 273 267 261 254 247 240 235 230 225 220 214 208 203 197 190 186 183 179 177 176 173 169 168 169 169 166 163 163 165 167 171 177 182 183 180 176 170 166 165 166 165 163 162 165 167 165 164 165 166 167 169 170 170 172 172 172 175 179 181 185 187 188 192 199 209 223 236 246 254 261 268 278 287 293 293 291 290 290 291 288
295 290 287 280 271 267 262 257 251 244 238 233 228 222 217 212 206 201 194 187 184 184 182 179 177 175 173 171 171 171 167 163 162 165 166 168 172 176 177 176 172 168 166 164 164 164 163 163 163 164 164 165 168 170 171 171 170 169 172 172 172 176 180 183 188 193 199 208 220 233 246 251 254 258 260 262 266 275 284 286 285 287 291 290 289
285 280 276 269 263 259 254 249 245 241 237 234 229 224 219 215 209 203 196 190 185 182 180 177 175 174 172 172 174 175 171 165 163 166 167 168 169 170 171 172 171 168 165 163 162 164 164 161 161 164 167 169 171 171 169 169 170 170 170 169 170 175 178 180 184 192 198 211 231 255 266 269 271 273 273 275 272 271 277 282 283 286 289 288 289
273 268 265 260 253 246 241 239 238 236 233 230 227 223 220 216 210 203 196 190 184 177 171 168 166 166 166 168 172 175 172 166 163 164 165 165 166 166 165 165 165 165 164 163 163 163 162 161 163 168 171 172 172 170 168 168 168 167 167 167 167 169 170 170 171 178 190 223 270 289 292 290 287 281 279 281 281 283 291 296 294 292 290 287 290
265 261 257 253 246 239 235 234 231 228 225 222 221 219 216 211 205 199 191 185 179 173 165 158 157 159 161 165 169 170 166 163 161 160 159 158 158 157 157 158 159 160 161 160 160 160 162 165 168 170 171 171 170 167 165 164 162 163 164 163 162 163 164 164 167 181 216 270 291 297 298 297 294 289 283 278 274 281 296 298 293 295 296 293 295
263 257 251 246 241 235 231 229 225 222 219 217 214 211 206 200 195 189 181 174 171 168 163 158 156 156 156 159 163 163 161 159 157 156 155 154 153 153 155 157 159 159 158 158 160 163 168 170 169 168 168 168 165 161 159 158 157 158 159 160 161 164 166 171 188 211 244 270 283 290 294 294 293 293 295 292 285 288 295 294 294 298 300 298 297
260 254 246 241 236 230 227 224 220 216 212 206 201 198 195 190 184 179 173 168 166 165 162 160 159 158 157 158 161 161 159 157 156 155 155 156 156 157 159 160 159 159 159 161 164 167 169 169 168 166 165 163 160 158 157 155 156 157 159 162 169 176 185 206 231 249 263 274 281 283 285 284 289 303 320 325 308 286 282 284 290 295 296 295 294
258 251 244 239 232 226 223 220 214 208 203 196 190 185 183 181 178 174 170 167 164 163 161 159 159 159 158 158 160 161 160 159 159 159 159 160 161 160 160 159 160 161 164 165 165 165 164 165 166 164 162 160 159 158 158 158 160 164 167 170 182 203 225 243 258 269 274 277 280 279 278 281 293 309 311 296 281 276 278 282 285 287 288 289 288
255 249 242 237 230 224 220 214 207 202 197 192 186 180 176 174 172 168 166 164 162 161 160 159 159 159 159 160 161 162 162 162 162 162 162 163 163 162 162 163 165 166 166 164 162 161 162 163 163 162 161 161 161 161 163 166 172 180 189 198 217 242 254 261 269 276 277 277 276 274 276 283 291 290 285 279 275 274 275 278 280 282 284 284 283
250 245 239 232 226 220 214 206 200 196 191 186 183 178 174 170 167 164 163 162 160 158 158 157 157 158 159 160 162 163 163 163 164 164 165 165 166 166 168 170 169 167 164 161 160 161 162 162 162 162 162 164 167 170 175 182 190 202 216 226 239 253 261 264 271 275 275 272 268 268 273 283 289 290 287 283 279 275 273 275 279 282 281 280 279
241 236 231 226 220 215 208 201 196 193 187 180 176 174 171 167 165 163 163 161 159 158 158 157 157 158 158 159 161 162 164 165 166 167 167 169 170 172 172 171 168 166 164 162 161 162 163 164 164 165 165 168 174 180 187 195 204 218 229 236 245 253 255 260 266 268 267 267 267 266 270 276 282 286 284 278 273 269 268 271 275 275 273 276 280
232 226 220 215 211 208 204 200 196 191 184 176 169 165 164 163 161 160 159 157 156 158 159 159 159 160 161 162 164 165 167 168 169 170 171 172 173 173 171 169 167 167 167 165 165 166 167 168 169 170 172 177 183 189 198 206 214 224 232 237 242 247 251 255 255 251 254 261 265 267 271 275 277 278 277 272 271 271 271 271 272 270 270 275 279
223 214 208 203 199 194 191 188 184 179 174 168 162 157 156 157 157 157 157 157 157 159 160 161 161 163 165 166 168 169 170 171 172 173 174 173 172 170 170 170 169 170 171 171 171 172 173 174 177 180 184 189 194 199 206 214 220 228 234 238 241 243 245 246 241 238 246 257 262 266 270 271 270 270 271 272 275 277 274 270 269 267 268 273 276